Location: Liscomb Game Sanctuary
(45.1633°N, 62.5575°W)
Time: 13:27:07
(UTC-03:00)

Amateur Radio Satellites - All Passes

Search period start: 23 May 2015 12:57
Search period end: 24 May 2015 12:57
Location: Liscomb Game Sanctuary, 45.1633°N, 62.5575°W

Satellite Date Start Highest point End Downlink Frequencies (MHz)
Time Altitude Azimuth
BUGSAT 1 23 May 12:58:35 13:00:56 14° 271° (W) 13:03:09 437.445
ESTCUBE 1 23 May 13:04:41 13:09:07 53° 288° (WNW) 13:13:31 437.505/2401.250
VELOX 1 23 May 13:18:57 13:22:40 25° 294° (WNW) 13:26:17 145.980
UKube-1 23 May 13:19:38 13:22:05 15° 299° (WNW) 13:24:23 .
DX 1 23 May 13:22:23 13:24:34 13° 299° (WNW) 13:26:33 434.975-435.025
DANDE 23 May 13:25:58 13:32:01 35° 86° (E) 13:39:18 436.750
TISAT 1 23 May 13:27:35 13:31:47 52° 100° (E) 13:35:58 437.305
CUBEBUG 1 23 May 13:29:00 13:33:03 34° 291° (WNW) 13:37:03 437.445
Oscar 19 23 May 13:42:35 13:47:47 84° 77° (ENE) 13:53:02 437.125/150
Cosmos 2504 23 May 13:45:28 13:49:36 14° 306° (NW) 13:53:10 435.465 / 435.565
ITAMSAT 1 23 May 13:48:15 13:52:44 32° 66° (ENE) 13:57:19 435.822/435.867
AISAT 23 May 13:50:14 13:52:31 14° 300° (WNW) 13:54:37 437.250
ITUPSAT 1 23 May 13:57:18 14:00:35 19° 90° (E) 14:04:01 437.325
Gurwin Techsat 1B 23 May 14:01:24 14:06:15 38° 68° (ENE) 14:11:10 435.225
BEESAT 23 May 14:07:21 14:11:09 24° 93° (E) 14:15:01 436.000
SO-50 23 May 14:08:27 14:13:03 38° 243° (WSW) 14:17:32 436.795
GONETS M04 23 May 14:12:18 14:21:05 75° 95° (E) 14:29:57
SWISSCUBE 23 May 14:14:54 14:19:05 30° 95° (E) 14:23:19 437.505
RS-15 23 May 14:16:47 14:26:08 29° 350° (N) 14:35:46 29.354- 29.394
SPROUT 23 May 14:24:05 14:27:55 30° 292° (WNW) 14:31:42 437.525
CUSAT 1 23 May 14:24:14 14:31:20 81° 282° (WNW) 14:39:41 437.405
AO-7 23 May 14:35:45 14:42:28 30° 54° (NE) 14:49:23 29.400- 29.500
Cosmos 2499 23 May 14:37:02 14:42:26 21° 82° (E) 14:47:55 435.465 / 435.565
JAS-2 23 May 14:51:28 14:56:47 27° 64° (ENE) 15:01:46 435.910
TISAT 1 23 May 15:04:21 15:07:13 17° 296° (WNW) 15:09:55 437.305
DANDE 23 May 15:08:09 15:14:56 54° 289° (WNW) 15:23:05 436.750
HORYU 2 23 May 15:09:41 15:13:30 29° 67° (ENE) 15:17:23 437.375
KKS-1 23 May 15:17:40 15:21:09 22° 92° (E) 15:24:43 437.445
Oscar 19 23 May 15:25:24 15:27:56 13° 274° (W) 15:30:11 437.125/150
ITAMSAT 1 23 May 15:27:25 15:32:11 36° 263° (W) 15:36:57 435.822/435.867
ITUPSAT 1 23 May 15:34:11 15:38:51 53° 289° (WNW) 15:43:30 437.325
Gurwin Techsat 1B 23 May 15:41:37 15:46:19 31° 266° (W) 15:50:59 435.225
BEESAT 23 May 15:44:41 15:49:11 41° 290° (WNW) 15:53:38 436.000
O/OREOS (USA 219) 23 May 15:46:43 15:48:21 12° 99° (E) 15:50:12 437.305
SWISSCUBE 23 May 15:52:41 15:56:57 33° 293° (WNW) 16:01:11 437.505
CUSAT 1 23 May 16:10:05 16:15:37 21° 306° (NW) 16:21:18 437.405
GONETS M04 23 May 16:11:38 16:19:00 27° 298° (WNW) 16:26:08
AO-7 23 May 16:26:20 16:34:38 76° 254° (WSW) 16:43:00 29.400- 29.500
Cosmos 2499 23 May 16:26:36 16:34:53 83° 279° (W) 16:42:33 435.465 / 435.565
STARS 23 May 16:31:15 16:35:44 80° 104° (ESE) 16:40:09 437.465
RS-15 23 May 16:32:46 16:42:51 35° 24° (NNE) 16:53:27 29.354- 29.394
JAS-2 23 May 16:34:50 16:41:39 60° 259° (W) 16:47:40 435.910
HORYU 2 23 May 16:46:04 16:50:06 31° 264° (W) 16:54:06 437.375
KKS-1 23 May 16:53:45 16:57:58 39° 290° (WNW) 17:02:07 437.445
DANDE 23 May 16:56:44 17:00:36 14° 314° (NW) 17:04:15 436.750
CUTE-I 23 May 17:11:47 17:15:18 19° 60° (ENE) 17:18:59 437.470
O/OREOS (USA 219) 23 May 17:22:42 17:27:13 75° 295° (WNW) 17:31:44 437.305
Cubesat XI-IV 23 May 17:30:12 17:34:30 26° 63° (ENE) 17:38:54 437.490
MOZHAYETS 4 23 May 17:53:40 17:58:15 78° 102° (ESE) 18:02:49
YUBILEINY 23 May 17:56:26 18:03:05 24° 60° (ENE) 18:09:58 435.215
STARS 23 May 18:09:33 18:11:36 13° 300° (WNW) 18:13:28 437.465
Cosmos 2499 23 May 18:24:01 18:29:21 18° 301° (WNW) 18:34:06 435.465 / 435.565
AO-7 23 May 18:24:12 18:29:03 16° 275° (W) 18:33:22 29.400- 29.500
RS-15 23 May 18:45:46 18:57:23 80° 52° (NE) 19:09:31 29.354- 29.394
CUTE-I 23 May 18:49:36 18:54:53 70° 258° (WSW) 19:00:14 437.470
BEESAT 2 23 May 18:53:31 18:56:23 19° 113° (ESE) 18:59:23 435.950
O/OREOS (USA 219) 23 May 19:05:58 19:07:32 11° 316° (NW) 19:08:57 437.305
STRAND 1 23 May 19:06:29 19:09:47 17° 89° (E) 19:13:15 437.568
BRITE-PL 23 May 19:06:57 19:10:28 20° 61° (ENE) 19:14:18 437.365/2234.400
Cubesat XI-IV 23 May 19:09:16 19:14:23 47° 261° (W) 19:19:31 437.490
PRISM 23 May 19:13:38 19:16:36 19° 92° (E) 19:19:41 437.425
DOVE 4 23 May 19:14:25 19:15:10 10° 55° (NE) 19:16:11 437.250
HO-68 23 May 19:17:56 19:23:15 24° 55° (NE) 19:28:45 435.675
CUBESAT XI-V 23 May 19:21:21 19:25:57 54° 100° (E) 19:30:34 437.345
GOMX 1 23 May 19:29:12 19:32:52 21° 62° (ENE) 19:36:49 467.674
MOZHAYETS 4 23 May 19:32:39 19:34:55 13° 299° (WNW) 19:37:00
CANX-2 23 May 19:42:57 19:45:21 15° 63° (ENE) 19:47:53 2200.000
M-CUBED/EXP-1 PRIME 23 May 19:46:05 19:47:39 13° 96° (E) 19:49:21 437.505
BEESAT 3 23 May 19:46:29 19:50:34 78° 124° (ESE) 19:54:42 437.485
CUTE 1.7 + AOD 2 23 May 19:47:07 19:49:30 15° 63° (ENE) 19:52:03 437.475
YUBILEINY 23 May 19:52:24 20:01:08 82° 264° (W) 20:09:49 435.215
AIST 2 23 May 19:55:51 19:59:19 25° 115° (ESE) 20:02:53 435.215
Cosmos 2491 23 May 19:56:27 20:04:52 54° 90° (E) 20:13:25 435.465 / 435.565
AUBIESAT-1 23 May 19:57:36 19:59:38 16° 97° (E) 20:01:45 437.475
SEEDS 23 May 20:14:46 20:18:05 23° 67° (ENE) 20:21:29 437.485
BEESAT 2 23 May 20:30:09 20:34:10 49° 310° (NW) 20:38:13 435.950
COMPASS 1 23 May 20:33:52 20:37:29 29° 69° (ENE) 20:41:09 437.405
CUBEBUG 2 23 May 20:36:17 20:38:57 15° 62° (ENE) 20:41:47 437.445
BRITE-PL 23 May 20:43:27 20:48:25 66° 261° (W) 20:53:49 437.365/2234.400
STRAND 1 23 May 20:44:24 20:49:30 64° 288° (WNW) 20:54:35 437.568
DOVE 4 23 May 20:46:55 20:51:55 64° 74° (ENE) 20:57:11 437.250
PRISM 23 May 20:48:22 20:52:15 39° 290° (WNW) 20:56:07 437.425
AAUSAT CUBESAT 2 23 May 20:49:06 20:52:55 36° 70° (ENE) 20:56:46 437.432
CINEMA 3 23 May 20:53:31 20:58:07 39° 69° (ENE) 21:02:49 145.822/145.860
ZACube-1 23 May 20:54:59 20:57:25 15° 62° (ENE) 21:00:01 437.345
RS-15 23 May 20:59:02 21:09:00 33° 253° (WSW) 21:18:56 29.354- 29.394
CUBESAT XI-V 23 May 20:59:42 21:03:02 19° 296° (WNW) 21:06:16 437.345
HO-68 23 May 21:03:04 21:10:18 81° 254° (WSW) 21:17:32 435.675
GOMX 1 23 May 21:05:29 21:10:30 62° 260° (W) 21:15:51 467.674
DX 1 23 May 21:09:52 21:10:33 10° 59° (ENE) 21:11:28 434.975-435.025
Oscar 11 23 May 21:14:40 21:18:33 34° 69° (ENE) 21:22:29 145.826/435.025
CANX-2 23 May 21:16:37 21:20:52 59° 260° (W) 21:25:05 2200.000
M-CUBED/EXP-1 PRIME 23 May 21:19:40 21:22:49 37° 294° (WNW) 21:25:52 437.505
CUTE 1.7 + AOD 2 23 May 21:20:47 21:25:00 59° 259° (W) 21:29:14 437.475
HUMSAT D 23 May 21:21:12 21:22:43 12° 61° (ENE) 21:24:27 437.325/437.525
BEESAT 3 23 May 21:26:17 21:29:05 17° 324° (NW) 21:31:49 437.485
UWE-3 23 May 21:29:48 21:34:06 37° 69° (ENE) 21:38:26 435.000/436.395/437.385
AUBIESAT-1 23 May 21:31:37 21:34:37 31° 296° (WNW) 21:37:33 437.475
AIST 2 23 May 21:33:41 21:37:44 40° 313° (NW) 21:41:49 435.215
AIST 1 23 May 21:34:25 21:38:37 67° 97° (E) 21:42:54
Cosmos 2504 23 May 21:36:14 21:43:19 51° 74° (ENE) 21:50:17 435.465 / 435.565
AISAT 23 May 21:38:50 21:40:02 11° 59° (ENE) 21:41:28 437.250
DELFI C3 23 May 21:41:39 21:45:30 45° 72° (ENE) 21:49:23 145.870
SEEDS 23 May 21:49:50 21:53:44 35° 264° (W) 21:57:37 437.485
FUNcube-1 23 May 21:49:59 21:54:22 46° 71° (ENE) 21:58:46 145.935
YUBILEINY 23 May 21:51:22 21:56:43 17° 283° (WNW) 22:01:36 435.215
Cosmos 2491 23 May 21:54:04 22:02:09 38° 293° (WNW) 22:10:09 435.465 / 435.565
COMPASS 1 23 May 22:09:34 22:13:10 26° 266° (W) 22:16:43 437.405
CUBEBUG 2 23 May 22:10:20 22:15:06 74° 258° (WSW) 22:19:54 437.445
BEESAT 2 23 May 22:12:08 22:13:17 11° 332° (NNW) 22:14:18 435.950
AAUSAT CUBESAT 2 23 May 22:25:24 22:28:40 21° 268° (W) 22:31:50 437.432
DOVE 4 23 May 22:26:43 22:30:14 18° 273° (W) 22:33:39 437.250
STRAND 1 23 May 22:27:25 22:27:50 10° 305° (NW) 22:27:58 437.568
ZACube-1 23 May 22:28:40 22:33:16 73° 258° (WSW) 22:37:53 437.345
ESTCUBE 1 23 May 22:30:45 22:34:01 21° 65° (ENE) 22:37:24 437.505/2401.250
CINEMA 3 23 May 22:31:08 22:35:24 28° 268° (W) 22:39:40 145.822/145.860
UKube-1 23 May 22:38:40 22:42:58 73° 74° (ENE) 22:47:18 .
VELOX 1 23 May 22:41:35 22:45:45 42° 70° (ENE) 22:49:58 145.980
DX 1 23 May 22:41:47 22:46:08 85° 75° (ENE) 22:50:33 434.975-435.025
CUBEBUG 1 23 May 22:51:11 22:54:50 27° 67° (ENE) 22:58:36 437.445
Oscar 11 23 May 22:51:12 22:54:49 25° 267° (W) 22:58:21 145.826/435.025
HUMSAT D 23 May 22:53:34 22:57:54 82° 257° (WSW) 23:02:15 437.325/437.525
HO-68 23 May 22:55:06 22:59:17 15° 275° (W) 23:03:03 435.675
ANTELSAT 23 May 22:57:02 23:00:19 21° 91° (E) 23:03:38 437.575/2403.000
POLYITAN 1 23 May 23:03:00 23:03:50 11° 86° (E) 23:04:56 437.675
QB50P1 23 May 23:03:13 23:03:55 10° 86° (E) 23:04:55 145.935-145.965
50 SAT 23 May 23:06:39 23:10:41 83° 76° (ENE) 23:14:43 437.505
UWE-3 23 May 23:06:45 23:10:43 26° 267° (W) 23:14:36 435.000/436.395/437.385
AISAT 23 May 23:11:31 23:15:58 88° 76° (ENE) 23:20:28 437.250
AIST 1 23 May 23:15:00 23:16:53 12° 296° (WNW) 23:18:35
DELFI C3 23 May 23:18:19 23:20:54 16° 270° (W) 23:23:21 145.870
CUSAT 1 23 May 23:19:53 23:25:34 22° 55° (NE) 23:30:46 437.405
FUNcube-1 23 May 23:27:27 23:30:56 20° 269° (W) 23:34:18 145.935
Cosmos 2504 23 May 23:30:12 23:36:24 31° 275° (W) 23:42:22 435.465 / 435.565
TIGRISAT 23 May 23:31:00 23:35:15 44° 98° (E) 23:39:25 435.000
NANOSAT C BR1 23 May 23:33:47 23:37:10 23° 93° (E) 23:40:35 145.865
QB50P2 23 May 23:38:51 23:42:28 26° 94° (E) 23:46:06 145.880/145.840
SPROUT 23 May 23:44:19 23:47:59 28° 68° (ENE) 23:51:44 437.525
UNISAT 6 23 May 23:49:40 23:54:08 73° 102° (ESE) 23:58:29 437.425
POPSAT HIP 1 23 May 23:51:52 23:55:49 35° 96° (E) 23:59:45 437.405
DUCHIFAT 1 23 May 23:56:50 00:00:51 38° 97° (E) 00:04:51 145.980
DANDE 24 May 00:05:15 00:12:46 36° 64° (ENE) 00:19:16 436.750
ESTCUBE 1 24 May 00:06:20 00:10:38 45° 262° (W) 00:14:57 437.505/2401.250
UKube-1 24 May 00:18:08 00:19:42 11° 273° (W) 00:21:02 .
VELOX 1 24 May 00:19:08 00:22:32 21° 268° (W) 00:25:50 145.980
GONETS M04 24 May 00:20:18 00:28:30 42° 69° (ENE) 00:36:43
TISAT 1 24 May 00:21:31 00:25:37 50° 72° (ENE) 00:29:47 437.305
CUBEBUG 1 24 May 00:27:15 00:31:08 31° 265° (W) 00:35:02 437.445
ANTELSAT 24 May 00:33:08 00:37:20 41° 290° (WNW) 00:41:23 437.575/2403.000
POLYITAN 1 24 May 00:36:04 00:40:23 77° 284° (WNW) 00:44:39 437.675
QB50P1 24 May 00:36:07 00:40:27 78° 284° (WNW) 00:44:43 145.935-145.965
BUGSAT 1 24 May 00:36:23 00:40:41 73° 102° (ESE) 00:44:56 437.445
CUSAT 1 24 May 01:01:45 01:09:36 86° 261° (W) 01:15:49 437.405
ITUPSAT 1 24 May 01:05:59 01:09:58 28° 66° (ENE) 01:14:02 437.325
TIGRISAT 24 May 01:08:25 01:11:43 20° 296° (WNW) 01:14:53 435.000
PCSat 24 May 01:09:09 01:12:44 19° 107° (ESE) 01:16:30 145.827
NANOSAT C BR1 24 May 01:09:10 01:13:07 36° 290° (WNW) 01:17:00 145.865
QB50P2 24 May 01:14:34 01:18:23 31° 292° (WNW) 01:22:07 145.880/145.840
BEESAT 24 May 01:15:43 01:19:58 34° 68° (ENE) 01:24:18 436.000
ISS 24 May 01:18:08 01:21:07 35° 142° (SE) 01:24:10 145.825
SPROUT 24 May 01:20:12 01:24:02 30° 265° (W) 01:27:50 437.525
SWISSCUBE 24 May 01:23:22 01:27:51 44° 70° (ENE) 01:32:22 437.505
POPSAT HIP 1 24 May 01:28:02 01:31:32 24° 294° (WNW) 01:34:57 437.405
UNISAT 6 24 May 01:28:05 01:30:22 14° 299° (WNW) 01:32:27 437.425
DUCHIFAT 1 24 May 01:33:06 01:36:27 22° 294° (WNW) 01:39:42 145.980
DANDE 24 May 01:48:25 01:56:28 55° 268° (W) 02:03:02 436.750
O/OREOS (USA 219) 24 May 01:51:39 01:55:45 34° 57° (ENE) 01:59:50 437.305
Oscar 19 24 May 01:52:42 01:56:54 25° 93° (E) 02:01:11 437.125/150
STARS 24 May 01:57:09 01:58:29 11° 59° (ENE) 02:00:02 437.465
TISAT 1 24 May 01:59:02 02:01:45 16° 270° (W) 02:04:19 437.305
BUGSAT 1 24 May 02:13:34 02:15:37 13° 299° (WNW) 02:17:31 437.445
Cosmos 2499 24 May 02:15:39 02:22:08 37° 70° (ENE) 02:28:39 435.465 / 435.565
GONETS M04 24 May 02:17:12 02:25:33 48° 271° (W) 02:33:44
Gurwin Techsat 1B 24 May 02:17:19 02:19:17 12° 85° (E) 02:21:35 435.225
KKS-1 24 May 02:17:47 02:21:30 27° 67° (ENE) 02:25:19 437.445
BEESAT 3 24 May 02:26:28 02:28:54 15° 34° (NE) 02:31:25 437.485
ITUPSAT 1 24 May 02:43:22 02:47:46 36° 264° (W) 02:52:09 437.325
CUSAT 1 24 May 02:46:23 02:50:57 17° 283° (WNW) 02:54:43 437.405
PCSat 24 May 02:50:14 02:55:39 70° 304° (NW) 03:01:06 145.827
BEESAT 24 May 02:53:44 02:57:53 28° 266° (W) 03:01:58 436.000
ISS 24 May 02:54:23 02:57:31 43° 339° (NNW) 03:00:39 145.825
SWISSCUBE 24 May 03:02:10 03:05:56 22° 268° (W) 03:09:36 437.505
BEESAT 2 24 May 03:09:48 03:13:18 26° 42° (NE) 03:16:48 435.950
MOZHAYETS 4 24 May 03:23:46 03:25:22 12° 60° (ENE) 03:27:11
STARS 24 May 03:29:51 03:34:18 90° 76° (ENE) 03:38:48 437.465
O/OREOS (USA 219) 24 May 03:31:16 03:35:04 27° 256° (WSW) 03:38:46 437.305
Oscar 19 24 May 03:31:34 03:36:29 44° 291° (WNW) 03:41:20 437.125/150
DANDE 24 May 03:36:27 03:37:48 10° 288° (WNW) 03:38:31 436.750
ITAMSAT 1 24 May 03:37:30 03:42:42 68° 102° (ESE) 03:47:55 435.822/435.867
JAS-2 24 May 03:44:00 03:46:13 13° 86° (E) 03:48:44 435.910
KKS-1 24 May 03:53:58 03:58:03 33° 264° (W) 04:02:08 437.445
Gurwin Techsat 1B 24 May 03:54:47 04:00:09 90° 103° (ESE) 04:05:29 435.225
BEESAT 3 24 May 04:03:24 04:07:31 90° 39° (NE) 04:11:34 437.485
Cosmos 2499 24 May 04:08:47 04:15:23 42° 271° (W) 04:21:53 435.465 / 435.565
AIST 2 24 May 04:15:03 04:18:57 34° 45° (NE) 04:22:47 435.215
SO-50 24 May 04:24:14 04:28:42 45° 119° (ESE) 04:33:21 436.795
VERMONT LUNAR 24 May 04:24:28 04:27:01 22° 163° (SSE) 04:29:35 437.305
AO-7 24 May 04:25:55 04:33:13 33° 94° (E) 04:40:39 29.400- 29.500
ISS 24 May 04:31:41 04:34:28 25° 359° (N) 04:37:15 145.825
HORYU 2 24 May 04:34:45 04:38:58 41° 98° (E) 04:43:10 437.375
PCSat 24 May 04:36:38 04:40:08 17° 327° (NNW) 04:43:31 145.827
BEESAT 2 24 May 04:47:39 04:51:32 40° 242° (WSW) 04:55:19 435.950
MOZHAYETS 4 24 May 04:57:23 05:01:59 89° 267° (W) 05:06:35
ITAMSAT 1 24 May 05:18:07 05:21:45 19° 299° (WNW) 05:25:14 435.822/435.867
JAS-2 24 May 05:26:58 05:32:12 77° 287° (WNW) 05:37:26 435.910
Gurwin Techsat 1B 24 May 05:36:29 05:39:27 15° 302° (WNW) 05:42:13 435.225
PHONESAT 2.4 24 May 05:49:06 05:52:03 26° 164° (SSE) 05:55:00 2401.200-2431.200
AIST 2 24 May 05:53:44 05:57:28 30° 244° (WSW) 06:01:06 435.215
VERMONT LUNAR 24 May 06:00:51 06:03:49 35° 179° (S) 06:06:47 437.305
Cosmos 2491 24 May 06:04:21 06:11:49 30° 64° (ENE) 06:19:27 435.465 / 435.565
SO-50 24 May 06:05:11 06:09:26 30° 319° (NW) 06:13:45 436.795
PRISM 24 May 06:06:03 06:08:58 20° 65° (ENE) 06:11:59 437.425
ISS 24 May 06:08:18 06:11:25 41° 19° (NNE) 06:14:33 145.825
HORYU 2 24 May 06:11:56 06:15:24 22° 295° (WNW) 06:18:45 437.375
AO-7 24 May 06:18:19 06:26:32 62° 295° (WNW) 06:34:43 29.400- 29.500
STRAND 1 24 May 06:24:03 06:28:27 31° 66° (ENE) 06:32:58 437.568
CUBESAT XI-V 24 May 06:26:37 06:31:10 66° 74° (ENE) 06:35:45 437.345
M-CUBED/EXP-1 PRIME 24 May 06:34:48 06:38:39 34° 65° (ENE) 06:42:16 437.505
AUBIESAT-1 24 May 06:46:07 06:50:02 39° 66° (ENE) 06:53:43 437.475
YUBILEINY 24 May 07:01:30 07:07:57 25° 81° (E) 07:14:42 435.215
CUTE-I 24 May 07:04:40 07:09:42 40° 97° (E) 07:14:45 437.470
JAS-2 24 May 07:14:53 07:16:32 11° 305° (NW) 07:17:55 435.910
Cubesat XI-IV 24 May 07:24:05 07:29:24 59° 101° (E) 07:34:43 437.490
PHONESAT 2.4 24 May 07:26:32 07:29:47 38° 181° (S) 07:33:01 2401.200-2431.200
VERMONT LUNAR 24 May 07:37:58 07:40:38 24° 195° (SSW) 07:43:17 437.305
AIST 1 24 May 07:39:55 07:43:14 21° 69° (ENE) 07:46:40
PRISM 24 May 07:40:20 07:44:11 40° 262° (W) 07:48:04 437.425
ISS 24 May 07:44:46 07:47:51 39° 218° (SW) 07:50:56 145.825
SO-50 24 May 07:51:02 07:51:36 10° 342° (NNW) 07:52:03 436.795
Cosmos 2491 24 May 08:00:45 08:09:31 67° 266° (W) 08:18:10 435.465 / 435.565
STRAND 1 24 May 08:02:56 08:07:36 36° 264° (W) 08:12:17 437.568
CUBESAT XI-V 24 May 08:06:36 08:09:09 14° 273° (W) 08:11:30 437.345
M-CUBED/EXP-1 PRIME 24 May 08:10:00 08:13:32 24° 259° (W) 08:16:49 437.505
AO-7 24 May 08:12:51 08:17:52 17° 316° (NW) 08:22:33 29.400- 29.500
AUBIESAT-1 24 May 08:21:40 08:24:55 21° 260° (W) 08:27:55 437.475
HO-68 24 May 08:30:13 08:34:28 17° 86° (E) 08:39:03 435.675
CUTE-I 24 May 08:45:00 08:49:41 31° 295° (WNW) 08:54:18 437.470
DOVE 4 24 May 08:45:35 08:48:47 17° 86° (E) 08:52:07 437.250
BRITE-PL 24 May 08:46:15 08:51:36 41° 95° (E) 08:56:49 437.365/2234.400
YUBILEINY 24 May 08:55:11 09:03:58 77° 281° (W) 09:12:46 435.215
CANX-2 24 May 09:00:38 09:03:42 20° 91° (E) 09:06:53 2200.000
PHONESAT 2.4 24 May 09:04:37 09:07:29 24° 198° (SSW) 09:10:19 2401.200-2431.200
CUTE 1.7 + AOD 2 24 May 09:04:42 09:07:47 20° 91° (E) 09:10:57 437.475
Cubesat XI-IV 24 May 09:05:03 09:09:07 22° 298° (WNW) 09:13:05 437.490
GOMX 1 24 May 09:05:37 09:10:42 39° 95° (E) 09:15:36 467.674
RS-15 24 May 09:12:52 09:22:26 39° 109° (ESE) 09:32:26 29.354- 29.394
AIST 1 24 May 09:17:01 09:21:04 37° 268° (W) 09:25:06
UNISAT 6 24 May 09:17:22 09:18:40 11° 59° (ENE) 09:20:11 437.425
SEEDS 24 May 09:31:58 09:35:43 32° 96° (E) 09:39:28 437.485
COMPASS 1 24 May 09:50:18 09:54:13 40° 97° (E) 09:58:09 437.405
PCSat 24 May 09:53:12 09:57:50 28° 43° (NE) 10:02:31 145.827
ANTELSAT 24 May 09:57:40 10:01:31 26° 67° (ENE) 10:05:26 437.575/2403.000
QB50P1 24 May 09:57:57 09:59:29 12° 61° (ENE) 10:01:12 145.935-145.965
POLYITAN 1 24 May 09:57:59 09:59:39 12° 61° (ENE) 10:01:31 437.675
CUBEBUG 2 24 May 10:00:35 10:03:56 21° 90° (E) 10:07:18 437.445
Cosmos 2491 24 May 10:00:46 10:04:49 13° 286° (WNW) 10:08:15 435.465 / 435.565
AAUSAT CUBESAT 2 24 May 10:05:09 10:09:11 50° 99° (E) 10:13:13 437.432
HO-68 24 May 10:16:07 10:23:20 88° 106° (ESE) 10:30:30 435.675
Cosmos 2504 24 May 10:16:13 10:23:55 43° 89° (E) 10:31:14 435.465 / 435.565
ZACube-1 24 May 10:16:28 10:19:31 19° 90° (E) 10:22:38 437.345
DOVE 4 24 May 10:21:56 10:27:09 66° 287° (WNW) 10:32:05 437.250
CINEMA 3 24 May 10:23:28 10:28:18 69° 101° (E) 10:32:55 145.822/145.860
BRITE-PL 24 May 10:24:54 10:29:59 33° 294° (WNW) 10:34:52 437.365/2234.400
UKube-1 24 May 10:27:01 10:27:39 10° 86° (E) 10:28:33 .
NANOSAT C BR1 24 May 10:28:27 10:31:47 23° 66° (ENE) 10:35:14 145.865
DX 1 24 May 10:29:58 10:31:47 13° 88° (E) 10:33:51 434.975-435.025
TIGRISAT 24 May 10:31:12 10:35:46 52° 72° (ENE) 10:40:19 435.000
QB50P2 24 May 10:33:48 10:37:23 27° 67° (ENE) 10:41:03 145.880/145.840
Oscar 11 24 May 10:35:32 10:39:44 50° 99° (E) 10:43:56 145.826/435.025
CANX-2 24 May 10:35:53 10:39:50 39° 289° (WNW) 10:43:44 2200.000
HUMSAT D 24 May 10:37:17 10:39:25 14° 88° (E) 10:41:43 437.325/437.525
CUTE 1.7 + AOD 2 24 May 10:39:56 10:43:54 39° 289° (WNW) 10:47:47 437.475
GOMX 1 24 May 10:43:52 10:48:42 32° 294° (WNW) 10:53:18 467.674
POPSAT HIP 1 24 May 10:46:32 10:50:26 35° 69° (ENE) 10:54:22 437.405
UNISAT 6 24 May 10:50:03 10:54:46 82° 76° (ENE) 10:59:28 437.425
DUCHIFAT 1 24 May 10:51:03 10:54:59 38° 70° (ENE) 10:58:59 145.980
DELFI C3 24 May 10:53:40 10:57:39 59° 100° (E) 11:01:36 145.870
UWE-3 24 May 10:54:00 10:58:25 58° 100° (E) 11:02:41 435.000/436.395/437.385
YUBILEINY 24 May 10:56:49 11:02:40 18° 305° (NW) 11:08:04 435.215
AISAT 24 May 11:01:36 11:04:04 15° 89° (E) 11:06:44 437.250
SEEDS 24 May 11:07:58 11:11:24 25° 293° (WNW) 11:14:46 437.485
FUNcube-1 24 May 11:12:36 11:16:59 71° 101° (ESE) 11:21:14 145.935
SO-50 24 May 11:13:55 11:17:10 17° 31° (NNE) 11:20:30 436.795
RS-15 24 May 11:23:24 11:34:16 67° 313° (NW) 11:45:31 29.354- 29.394
COMPASS 1 24 May 11:26:36 11:29:40 20° 294° (WNW) 11:32:38 437.405
BUGSAT 1 24 May 11:28:10 11:32:15 65° 74° (ENE) 11:36:27 437.445
QB50P1 24 May 11:30:30 11:34:46 81° 256° (WSW) 11:39:06 145.935-145.965
POLYITAN 1 24 May 11:30:41 11:35:00 79° 256° (WSW) 11:39:21 437.675
ANTELSAT 24 May 11:33:46 11:38:10 38° 263° (W) 11:42:31 437.575/2403.000
PCSat 24 May 11:36:18 11:41:37 56° 244° (WSW) 11:46:53 145.827
CUBEBUG 2 24 May 11:36:34 11:40:53 42° 289° (WNW) 11:45:01 437.445
AAUSAT CUBESAT 2 24 May 11:41:48 11:44:27 16° 296° (WNW) 11:46:58 437.432
ZACube-1 24 May 11:51:58 11:56:10 44° 289° (WNW) 12:00:13 437.345
ESTCUBE 1 24 May 11:56:55 12:00:58 32° 96° (E) 12:05:02 437.505/2401.250
UKube-1 24 May 12:00:05 12:04:27 81° 286° (WNW) 12:08:48 .
CINEMA 3 24 May 12:01:56 12:04:57 16° 299° (WNW) 12:07:44 145.822/145.860
DOVE 4 24 May 12:02:44 12:03:56 11° 304° (NW) 12:04:50 437.250
NANOSAT C BR1 24 May 12:03:30 12:07:28 36° 263° (W) 12:11:26 145.865
DX 1 24 May 12:04:11 12:08:36 69° 286° (WNW) 12:12:57 434.975-435.025
HO-68 24 May 12:05:03 12:10:17 22° 306° (NW) 12:15:18 435.675
VELOX 1 24 May 12:06:07 12:10:36 64° 102° (ESE) 12:15:02 145.980
QB50P2 24 May 12:09:22 12:13:12 31° 265° (W) 12:17:02 145.880/145.840
Cosmos 2504 24 May 12:09:25 12:17:21 44° 288° (WNW) 12:24:44 435.465 / 435.565
TIGRISAT 24 May 12:09:28 12:12:49 19° 270° (W) 12:16:02 435.000
HUMSAT D 24 May 12:11:29 12:15:36 55° 287° (WNW) 12:19:38 437.325/437.525
Oscar 11 24 May 12:12:40 12:15:35 18° 296° (WNW) 12:18:23 145.826/435.025
CUBEBUG 1 24 May 12:13:29 12:17:41 40° 98° (E) 12:21:54 437.445
50 SAT 24 May 12:15:46 12:19:42 83° 286° (WNW) 12:23:34 437.505
POPSAT HIP 1 24 May 12:22:54 12:26:23 23° 267° (W) 12:29:50 437.405
DUCHIFAT 1 24 May 12:27:37 12:30:57 21° 268° (W) 12:34:13 145.980
CUSAT 1 24 May 12:28:11 12:33:11 21° 80° (E) 12:38:57 437.405
DELFI C3 24 May 12:30:13 12:32:21 14° 297° (WNW) 12:34:19 145.870
UNISAT 6 24 May 12:30:25 12:32:13 12° 274° (W) 12:33:45 437.425
UWE-3 24 May 12:31:40 12:34:30 16° 298° (WNW) 12:37:08 435.000/436.395/437.385
AISAT 24 May 12:36:40 12:41:08 61° 287° (WNW) 12:45:32 437.250
FUNcube-1 24 May 12:50:35 12:52:46 13° 299° (WNW) 12:54:47 145.935
